Waupaca, WI

7:12 PM CDT on September 30, 2016 (GMT -0500)
Waupaca Municipal

Weather History for KPCZ - September, 2013

Change the Weather History Date:

Monday, September 23, 2013

  Actual Average Record
Temperature  
Mean Temperature 52 °F -  
Max Temperature 67 °F 65 °F 84 °F (1958)
Min Temperature 37 °F 42 °F 24 °F (1974)
Degree Days  
Heating Degree Days 13    
Growing Degree Days 2 (Base 50)    
Moisture  
Dew Point 44 °F    
Average Humidity 75    
Maximum Humidity 95    
Minimum Humidity 46    
Precipitation  
Precipitation 0.00 in - - ()
Sea Level Pressure  
Sea Level Pressure 30.10 in    
Wind  
Wind Speed 3 mph (ESE)    
Max Wind Speed 14 mph    
Max Gust Speed -    
Visibility 10 miles    
Events      
Averages and records for this station are not official NWS values.
T = Trace of Precipitation, MM = Missing Value Source: NWS Daily Summary

Daily Weather History Graph

Daily Weather History Graph

Search for Another Location

Airport or City:

Trip Planner

Search our weather history database for the weather conditions in past years. The results will help you decide how hot, cold, wet, or windy it might be!

Date:

Astronomy

Sep. 23, 2013 Rise Set
Actual Time 6:44 AM CDT 6:51 PM CDT
Civil Twilight 6:15 AM CDT 7:20 PM CDT
Nautical Twilight 5:41 AM CDT 7:53 PM CDT
Astronomical Twilight 5:06 AM CDT 8:28 PM CDT
Moon 9:12 PM CDT (9/23) 11:14 AM CDT (9/23)
Length of Visible Light 13h 04m
Length of Day
12h 06m
Waning Gibbous, 81% of the Moon is Illuminated
Sep 23
Waning Gibbous
Sep 26
Last Quarter
Oct 4
New
Oct 11
First Quarter
Oct 18
Full

Hourly Weather History & Observations

Time (CDT) Temp. Dew Point Humidity Pressure Visibility Wind Dir Wind Speed Gust Speed Precip Events Conditions
12:15 AM 44.8 °F 41.4 °F 88% 30.09 in 10.0 mi Calm Calm - N/A   Clear
12:35 AM 44.6 °F 41.5 °F 89% 30.09 in 10.0 mi Calm Calm - N/A   Clear
12:55 AM 44.6 °F 41.4 °F 88% 30.09 in 10.0 mi Calm Calm - N/A   Clear
1:15 AM 44.6 °F 41.4 °F 88% 30.09 in 10.0 mi Calm Calm - N/A   Clear
1:35 AM 44.4 °F 41.2 °F 88% 30.09 in 10.0 mi Calm Calm - N/A   Clear
1:55 AM 43.7 °F 40.8 °F 90% 30.09 in 10.0 mi Calm Calm - N/A   Clear
2:15 AM 43.2 °F 40.8 °F 91% 30.09 in 10.0 mi Calm Calm - N/A   Clear
2:35 AM 43.3 °F 41.0 °F 91% 30.09 in 10.0 mi Calm Calm - N/A   Clear
2:55 AM 41.0 °F 38.3 °F 90% 30.09 in 10.0 mi Calm Calm - N/A   Clear
3:15 AM 41.2 °F 39.2 °F 93% 30.09 in 10.0 mi Calm Calm - N/A   Clear
3:35 AM 40.8 °F 38.7 °F 92% 30.10 in 10.0 mi Calm Calm - N/A   Clear
3:55 AM 40.6 °F 38.7 °F 93% 30.10 in 10.0 mi Calm Calm - N/A   Clear
4:38 AM 39.2 °F 37.4 °F 93% 30.10 in 10.0 mi Calm Calm - N/A   Clear
4:55 AM 39.4 °F 37.4 °F 93% 30.10 in 10.0 mi Calm Calm - N/A   Clear
5:15 AM 39.4 °F 37.6 °F 93% 30.10 in 10.0 mi Calm Calm - N/A   Clear
5:35 AM 39.0 °F 37.2 °F 93% 30.10 in 10.0 mi Calm Calm - N/A   Clear
5:55 AM 38.7 °F 36.9 °F 93% 30.11 in 10.0 mi Calm Calm - N/A   Clear
6:15 AM 38.3 °F 36.5 °F 93% 30.11 in 10.0 mi Calm Calm - N/A   Clear
6:35 AM 37.9 °F 36.5 °F 95% 30.12 in 10.0 mi Calm Calm - N/A   Clear
6:55 AM 37.8 °F 36.1 °F 94% 30.13 in 10.0 mi Calm Calm - N/A   Clear
7:15 AM 38.5 °F 36.9 °F 94% 30.13 in 10.0 mi Calm Calm - N/A   Clear
7:35 AM 39.4 °F 37.8 °F 94% 30.13 in 7.0 mi Calm Calm - N/A   Clear
7:55 AM 42.3 °F 40.6 °F 94% 30.13 in 10.0 mi Calm Calm - N/A   Clear
8:15 AM 45.0 °F 43.3 °F 94% 30.13 in 10.0 mi Calm Calm - N/A   Clear
8:35 AM 47.8 °F 45.3 °F 91% 30.13 in 10.0 mi Calm Calm - N/A   Clear
8:55 AM 50.2 °F 45.9 °F 85% 30.13 in 10.0 mi Calm Calm - N/A   Clear
9:15 AM 53.2 °F 47.1 °F 80% 30.13 in 10.0 mi Calm Calm - N/A   Clear
9:35 AM 55.9 °F 47.8 °F 74% 30.14 in 10.0 mi SSE 3.5 mph - N/A   Clear
9:55 AM 57.4 °F 48.2 °F 71% 30.15 in 10.0 mi SE 5.8 mph - N/A   Clear
10:15 AM 58.1 °F 48.6 °F 71% 30.15 in 10.0 mi South 5.8 mph - N/A   Scattered Clouds
10:35 AM 58.6 °F 48.2 °F 68% 30.15 in 10.0 mi SSE 8.1 mph - N/A   Scattered Clouds
10:55 AM 60.6 °F 47.7 °F 62% 30.14 in 10.0 mi SE 8.1 mph - N/A   Scattered Clouds
11:15 AM 61.9 °F 47.1 °F 58% 30.14 in 10.0 mi SSE 8.1 mph - N/A   Scattered Clouds
11:35 AM 63.3 °F 47.5 °F 56% 30.14 in 10.0 mi ESE 4.6 mph - N/A   Scattered Clouds
11:55 AM 64.0 °F 47.8 °F 56% 30.13 in 10.0 mi SSE 8.1 mph - N/A   Scattered Clouds
12:15 PM 62.8 °F 47.5 °F 57% 30.13 in 10.0 mi ESE 8.1 mph - N/A   Scattered Clouds
12:35 PM 64.4 °F 47.8 °F 55% 30.12 in 10.0 mi East 13.8 mph - N/A   Scattered Clouds
12:55 PM 65.3 °F 48.0 °F 54% 30.11 in 10.0 mi ESE 9.2 mph - N/A   Clear
1:15 PM 65.7 °F 47.5 °F 52% 30.11 in 10.0 mi ESE 9.2 mph - N/A   Clear
1:35 PM 66.9 °F 48.2 °F 51% 30.10 in 10.0 mi East 8.1 mph - N/A   Clear
1:55 PM 66.6 °F 47.7 °F 51% 30.09 in 10.0 mi East 10.4 mph - N/A   Clear
2:15 PM 66.6 °F 46.9 °F 49% 30.09 in 10.0 mi ESE 9.2 mph - N/A   Clear
2:35 PM 67.3 °F 47.3 °F 49% 30.08 in 10.0 mi SSE 5.8 mph - N/A   Clear
2:55 PM 67.5 °F 46.8 °F 47% 30.08 in 10.0 mi SSE 9.2 mph - N/A   Clear
3:15 PM 67.5 °F 46.0 °F 46% 30.07 in 10.0 mi East 9.2 mph - N/A   Clear
3:35 PM 67.1 °F 46.2 °F 47% 30.06 in 10.0 mi SE 6.9 mph - N/A   Clear
3:55 PM 67.1 °F 46.6 °F 48% 30.06 in 10.0 mi East 9.2 mph - N/A   Clear
4:15 PM 66.9 °F 46.8 °F 48% 30.06 in 10.0 mi ESE 8.1 mph - N/A   Clear
4:35 PM 66.6 °F 45.9 °F 47% 30.06 in 10.0 mi East 10.4 mph - N/A   Clear
4:55 PM 67.1 °F 46.4 °F 47% 30.06 in 10.0 mi East 11.5 mph - N/A   Clear
5:15 PM 66.0 °F 46.9 °F 50% 30.06 in 10.0 mi ESE 11.5 mph - N/A   Clear
5:35 PM 65.7 °F 47.3 °F 51% 30.06 in 10.0 mi East 10.4 mph - N/A   Clear
5:55 PM 64.6 °F 47.8 °F 55% 30.06 in 10.0 mi ESE 8.1 mph - N/A   Clear
6:15 PM 64.0 °F 48.6 °F 57% 30.06 in 10.0 mi East 6.9 mph - N/A   Clear
6:35 PM 62.2 °F 48.6 °F 61% 30.06 in 10.0 mi East 9.2 mph - N/A   Clear
6:55 PM 59.4 °F 48.7 °F 68% 30.06 in 10.0 mi ESE 5.8 mph - N/A   Clear
7:15 PM 58.1 °F 49.1 °F 72% 30.06 in 10.0 mi ESE 8.1 mph - N/A   Clear
7:35 PM 58.5 °F 48.7 °F 70% 30.06 in 10.0 mi ESE 10.4 mph - N/A   Clear
7:55 PM 57.4 °F 48.2 °F 71% 30.07 in 10.0 mi ESE 9.2 mph - N/A   Clear
8:15 PM 56.3 °F 48.2 °F 74% 30.08 in 10.0 mi ESE 9.2 mph - N/A   Clear
8:35 PM 55.4 °F 47.5 °F 75% 30.08 in 10.0 mi ESE 6.9 mph - N/A   Clear
8:55 PM 54.5 °F 47.3 °F 77% 30.08 in 10.0 mi ESE 4.6 mph - N/A   Clear
9:15 PM 53.6 °F 47.5 °F 80% 30.08 in 10.0 mi ESE 6.9 mph - N/A   Clear
9:35 PM 51.8 °F 47.1 °F 84% 30.08 in 10.0 mi East 3.5 mph - N/A   Clear
9:55 PM 51.1 °F 46.9 °F 86% 30.08 in 10.0 mi Calm Calm - N/A   Clear
10:15 PM 50.4 °F 47.1 °F 89% 30.08 in 10.0 mi Calm Calm - N/A   Clear
10:35 PM 48.9 °F 46.2 °F 90% 30.08 in 10.0 mi Calm Calm - N/A   Clear
10:55 PM 48.2 °F 45.9 °F 92% 30.08 in 10.0 mi Calm Calm - N/A   Clear
11:15 PM 48.2 °F 46.0 °F 92% 30.08 in 10.0 mi Calm Calm - N/A   Clear
11:35 PM 46.4 °F 44.2 °F 92% 30.08 in 10.0 mi Calm Calm - N/A   Clear
11:55 PM 46.4 °F 44.2 °F 92% 30.07 in 7.0 mi Calm Calm - N/A   Clear